{"data":{"norad_id":55383,"intl_designator":"2023-013BE","name":"STARLINK-5531","alt_names":[],"object_type":"PAYLOAD","status":"ACTIVE","operator":null,"country":"US","launch_date":"2023-01-26","launch_site_code":"AFETR","launch_vehicle":null,"mission":null,"orbit_class":"UNKNOWN","rcs_meters":null,"size_class":null,"mass_kg":null,"dimensions":null,"purposes":["comms"],"wikipedia_slug":null,"has_3d_model":false,"image_url":null,"decayed_at":null,"tle_current":{"epoch":"2026-05-24T16:09:16.780896Z","epoch_age_seconds":106884,"freshness":"FRESH","line1":"1 55383U 23013BE  26144.67311089  .00000441  00000+0  25554-4 0  9998","line2":"2 55383  43.0044 219.6048 0002458 286.2787  73.7795 15.27577462183466","mean_motion":15.27577462,"eccentricity":0.0002458,"inclination_deg":43.0044,"raan_deg":219.6048,"arg_perigee_deg":286.2787,"mean_anomaly_deg":73.7795,"bstar":2.5554e-5,"rev_number":18346,"period_min":94.266905333538,"perigee_km":481.3702143248,"apogee_km":484.74317714563,"semimajor_km":6861.1936957352,"source":"CELESTRAK","updated_at":"2026-05-25T13:38:17.770889Z"}}}